[[{"header":{"parameterUnit":"m.s-1","parameterCategory":1,"la1":30.2992,"la2":30.254,"lo1":-89.0895,"lo2":-89.0443,"dy":0.0025,"dx":0.0025,"nx":19,"ny":19,"refTime":"2026-03-06T03:00:00:Z","depth":0,"parameterNumber":2,"parameterNumberName":"U-component_of_WINDS"},"data":[0,0,0,-3.9847,-3.9849,-3.9969,-3.9969,-4.0119,-4.012,0,0,0,0,0,0,0,0,0,0,0,-3.981,-3.9811,-3.9846,-3.9849,-3.9969,-3.9969,-4.0118,-4.012,0,0,0,0,0,0,0,0,0,0,0,-3.981,-3.9811,-3.9812,-3.985,-3.9968,-3.9969,-4.0118,-4.0029,0,0,0,0,0,0,0,0,0,0,-3.9913,-3.9879,-3.9811,-3.9812,-3.985,-3.9968,-3.9969,-4.0025,-4.0034,-4.0064,0,-4.009,0,-4.0108,-4.013,-4.013,0,0,0,-3.9849,-3.9871,-3.9904,-3.9813,-3.9852,-3.9968,-3.9915,-4.003,-4.0041,-4.0077,-4.0093,-4.0098,-4.011,-4.0131,-4.0132,-4.0302,-4.0303,0,0,-3.9843,-3.9831,-3.9897,-3.9911,-3.9894,-3.9911,-3.9919,-4.0037,-4.0053,-4.0093,-4.0102,-4.0113,-4.0132,-4.0133,-4.0302,-4.0303,0,0,0,-3.9824,-3.9826,-3.9857,-3.9905,-3.9927,-3.9914,-3.9923,-4.0047,-4.0059,-4.0103,-4.0114,-4.0133,-4.0135,-4.0301,-4.0302,-4.0328,0,0,0,-3.982,-3.9815,-3.9854,-3.9847,-3.9925,-3.9989,-3.9931,-4.005,-4.0064,-4.0114,-4.0133,-4.0136,-4.03,-4.0302,-4.0326,-4.0342,0,0,0,-3.9803,-3.9813,-3.983,-3.9847,-3.9898,-3.9987,-4.0005,-4.0054,-4.0071,-4.0131,-4.0136,-4.0299,-4.0301,-4.0324,-4.0338,-4.0382,0,0,0,-3.978,-3.9852,-3.9831,-3.9915,-3.9897,-4.0004,-4.0005,-4.0085,-4.0139,-4.0134,-4.03,-4.0302,-4.0323,-4.0336,-4.038,-4.0415,-4.043,0,0,-3.9863,-3.9861,-3.9912,-3.9896,-4.0004,-3.9987,-4.0099,-4.0159,-4.0175,-4.0259,-4.0263,-4.0327,-4.0338,-4.0382,-4.052,-4.0531,0,0,0,-3.9933,-3.9969,-4.0001,-4.0053,-4.0102,-4.0145,-4.0191,-4.0214,-4.0286,-4.0216,-4.0356,-4.0363,-4.0389,-4.0407,-4.0417,-4.0439,-4.031,-4.031,-4.031,-4.003,-4.005,-4.0134,-4.0167,-4.0218,-4.0266,-4.0308,-4.0347,-4.035,-4.0383,-4.0406,-4.0488,-4.0508,-4.0515,-4.0539,-4.0429,-4.0429,-4.0429,-4.0429,-4.0151,-4.0204,-4.021,-4.0293,-4.0312,-4.0382,-4.0431,-4.0432,-4.0499,-4.0471,-4.0495,-4.0461,-4.0527,-4.0549,-4.0432,-4.0431,-4.0431,-4.0431,-4.0431,-4.0215,-4.0243,-4.0272,-4.035,-4.0408,-4.044,-4.0505,-4.0521,-4.0536,-4.056,-4.0586,-4.0586,-4.0585,-4.0572,-4.0572,-4.0573,-4.0573,-4.0573,-4.0573,-4.0268,-4.0299,-4.0352,-4.0413,-4.0449,-4.0498,-4.0549,-4.0584,-4.0628,-4.0634,-4.0634,-4.0633,-4.0532,-4.0504,-4.0578,-4.0577,-4.0576,-4.0576,-4.0576,-4.0378,-4.0357,-4.0438,-4.0475,-4.0547,-4.0604,-4.0625,-4.0697,-4.0729,-4.076,-4.0756,-4.0679,-4.0677,-4.0669,-4.0647,-4.0753,-4.0753,-4.0753,-4.0753,-4.0429,-4.0432,-4.0519,-4.0576,-4.0635,-4.0663,-4.0754,-4.0794,-4.0832,-4.0853,-4.0841,-4.0814,-4.0805,-4.0808,-4.0798,-4.0776,-4.0913,-4.0913,-4.0913,-4.0498,-4.0506,-4.0581,-4.0619,-4.0678,-4.0728,-4.0814,-4.0879,-4.0918,-4.092,-4.087,-4.0863,-4.0819,-4.0804,-4.0801,-4.0784,-4.0745,0,0]},{"header":{"parameterUnit":"m.s-1","parameterCategory":1,"la1":30.2992,"la2":30.254,"lo1":-89.0895,"lo2":-89.0443,"dy":0.0025,"dx":0.0025,"nx":19,"ny":19,"refTime":"2026-03-06T03:00:00:Z","depth":0,"parameterNumber":3,"parameterNumberName":"V-component_of_WINDS"},"data":[0,0,0,2.3882,2.3886,2.412,2.4121,2.4393,2.4395,0,0,0,0,0,0,0,0,0,0,0,2.3795,2.3796,2.3881,2.3887,2.412,2.4121,2.4392,2.4395,0,0,0,0,0,0,0,0,0,0,0,2.3795,2.3796,2.3798,2.3888,2.4119,2.4121,2.4392,2.4226,0,0,0,0,0,0,0,0,0,0,2.4004,2.3906,2.3796,2.3798,2.3889,2.4119,2.4121,2.4218,2.4236,2.4276,0,2.4305,0,2.4354,2.4411,2.4412,0,0,0,2.39,2.3891,2.397,2.3798,2.3891,2.4119,2.4018,2.4228,2.4249,2.4299,2.4309,2.432,2.4359,2.4413,2.4414,2.4599,2.4599,0,0,2.3887,2.3828,2.3956,2.3982,2.3943,2.4011,2.4025,2.4241,2.4248,2.431,2.4327,2.4363,2.4415,2.4417,2.4599,2.4599,0,0,0,2.3841,2.3818,2.3892,2.397,2.4014,2.4017,2.4034,2.4238,2.4268,2.433,2.4366,2.4416,2.4419,2.4598,2.4599,2.4554,0,0,0,2.3834,2.3791,2.3886,2.3852,2.4009,2.4129,2.4026,2.4253,2.4279,2.4365,2.4416,2.4421,2.4598,2.4598,2.4555,2.4543,0,0,0,2.3786,2.3786,2.3814,2.3848,2.3946,2.4127,2.4169,2.426,2.4301,2.4412,2.4422,2.4598,2.4598,2.4555,2.4544,2.4576,0,0,0,2.3717,2.3768,2.3812,2.3884,2.3944,2.4097,2.4168,2.4285,2.4375,2.4417,2.4598,2.4599,2.4556,2.4545,2.4576,2.4592,2.4593,0,0,2.3749,2.377,2.3817,2.3863,2.3993,2.4066,2.4191,2.433,2.4395,2.4527,2.4533,2.4555,2.4544,2.4576,2.4617,2.4617,0,0,0,2.3807,2.3841,2.3888,2.3972,2.408,2.4173,2.43,2.4352,2.4468,2.445,2.4576,2.4572,2.4593,2.4604,2.4604,2.4627,2.4601,2.4601,2.46,2.3765,2.3847,2.3932,2.4044,2.4125,2.4257,2.4331,2.4425,2.4482,2.4511,2.455,2.4566,2.4576,2.4576,2.46,2.4565,2.4565,2.4565,2.4565,2.3819,2.388,2.396,2.4071,2.4159,2.4253,2.4385,2.4423,2.4526,2.4541,2.4564,2.4575,2.4574,2.4599,2.4562,2.4563,2.4563,2.4563,2.4564,2.3801,2.3845,2.3909,2.4043,2.4137,2.4249,2.4345,2.4422,2.4494,2.4517,2.4569,2.457,2.4582,2.4536,2.4537,2.4537,2.4537,2.4537,2.4537,2.3756,2.3831,2.3902,2.4025,2.4092,2.4189,2.4327,2.4395,2.4491,2.4539,2.454,2.4596,2.4558,2.4548,2.4538,2.4538,2.4538,2.4538,2.4537,2.3781,2.3789,2.3898,2.3966,2.412,2.4211,2.4308,2.4442,2.451,2.4556,2.461,2.4569,2.4596,2.4596,2.4588,2.459,2.459,2.459,2.459,2.3766,2.3788,2.3921,2.4024,2.4134,2.4235,2.4361,2.447,2.4584,2.4632,2.4644,2.4639,2.4636,2.4666,2.4665,2.4659,2.4678,2.4678,2.4678,2.3787,2.3825,2.3915,2.4027,2.4155,2.4264,2.4385,2.4503,2.4634,2.4683,2.4673,2.4669,2.4663,2.4656,2.4703,2.4699,2.469,0,0]}]]